Location: Greenhawk Observatory
(37.3417°N, 122.0298°W)
Time: 09:44:09
(UTC-07:00)

Daily predictions for brighter satellites

Satellite Brightness Start Highest point End
(mag) Time Altitude Azimuth Time Altitude Azimuth Time Altitude Azimuth
CENTAUR R/B 3.2 20:44:46 10° SSE 20:49:44 29° ESE 20:55:10 10° NE
COSMOS 2455 3.0 20:45:19 10° S 20:51:05 50° ESE 20:56:52 10° NE
OAO 2 Rocket 4.1 20:47:36 10° W 20:52:20 40° SSW 20:57:00 10° SE
Cosmos 1862 Rocket 3.6 20:48:13 10° N 20:52:43 73° E 20:57:10 10° SSE
Cosmos 2369 Rocket 2.6 20:48:32 10° S 20:53:46 41° ESE 20:59:04 10° NE
Shenzhou-11 Module 2.1 20:51:12 10° WNW 20:54:17 71° NNE 20:57:21 10° ESE
Resurs 01 Rocket 2.0 20:50:24 10° S 20:54:48 71° WSW 20:59:15 10° NNW
Milstar 3 4.4 20:41:56 10° SW 20:54:48 37° SSE 21:02:26 10° ESE
Lacrosse 5 rocket 1.1 20:53:25 10° SSW 20:56:53 49° SE 21:00:22 10° NE
Cosmos 1346 Rocket 3.2 20:56:36 10° N 21:00:27 46° E 21:04:17 10° SSE
YAOGAN 6 3.5 20:58:45 10° SE 21:02:05 32° ENE 21:05:24 10° N
COSMOS 2487 4.0 21:01:02 10° NW 21:04:18 36° WSW 21:07:33 10° S
Cosmos 1939 Rocket 3.1 21:01:59 10° SSE 21:06:03 59° ENE 21:10:06 10° N
Cosmos 1933 3.9 21:03:18 10° NNW 21:07:15 60° W 21:11:12 10° S
OE (NEXTSAT) 4.4 21:05:30 10° WNW 21:09:03 78° SSW 21:12:03 14° SE
SL-19 R/B 4.4 21:07:02 10° SSE 21:12:42 72° ENE 21:18:48 10° NNW
GPS 2-04 Rocket1 2.5 21:09:32 10° W 21:13:17 68° S 21:16:29 13° E
Okean 1-7 4.0 21:12:39 10° NNE 21:16:36 31° ENE 21:19:40 15° SE
ATLAS 5 CENTAUR R/B 3.7 21:12:42 10° N 21:17:41 26° NE 21:22:41 11° E
Cosmos 2346 Rocket 4.4 21:15:50 10° S 21:21:53 88° E 21:27:59 10° N
Meteor 1-29 3.2 21:18:53 10° NNE 21:22:17 50° E 21:25:41 10° S
Aureole 3 3.3 21:21:59 14° SSE 21:24:15 35° E 21:27:01 10° NNE
Aureole 1 4.2 21:22:46 10° SSW 21:25:45 84° WNW 21:29:05 10° NNE
H-2A R/B 3.7 21:22:48 12° ESE 21:25:47 19° ENE 21:29:24 10° NNE
Cosmos 1408 3.3 21:26:50 16° SSE 21:29:14 34° E 21:32:39 10° NNE
Cosmos 1703 Rocket 3.5 21:25:28 10° N 21:29:52 69° E 21:33:41 13° SSE
ARGOS 4.1 21:29:07 17° ESE 21:32:29 32° ENE 21:37:11 10° N
EO 1 Delta rocket 4.5 21:32:22 10° SSE 21:37:49 81° E 21:44:52 10° N
Cosmos 1782 3.2 21:34:42 10° N 21:38:32 43° E 21:40:31 24° SE
Cosmos 1733 Rocket 4.4 21:38:50 19° ESE 21:39:35 20° E 21:42:47 10° NE
Cosmos 1825 2.4 21:38:01 20° SSE 21:40:21 46° E 21:43:59 10° NNE
DNEPR-1 R/B 3.8 21:35:31 10° SSW 21:40:58 71° ESE 21:45:34 10° NE
Meteor 2-3 Rocket 4.5 21:37:27 10° SSW 21:43:02 55° WNW 21:48:37 10° N
Cosmos 1869 Rocket 3.6 21:42:08 10° S 21:46:26 82° W 21:50:50 10° N
ERS-1 Rocket 3.0 21:43:32 20° SSE 21:47:00 65° ENE 21:52:00 10° N
Helios 1B rocket 3.3 21:46:45 10° N 21:50:44 52° WNW 21:54:43 10° SSW
Cosmos 2084 3.1 21:48:49 10° NNW 21:52:41 88° SW 21:54:26 32° SSE
Cosmos 1862 3.8 21:55:13 34° SE 21:56:12 40° E 21:59:56 10° NNE
ISS -1.3 21:54:44 10° W 21:57:26 23° NNW 22:00:08 10° NNE
Cosmos 1048 Rocket 4.2 21:52:29 10° N 21:57:44 56° ENE 22:00:11 30° SE
Lacrosse 4 Rocket 2.5 21:56:36 10° N 22:00:44 35° ENE 22:02:08 28° E
OAO 3 Copernicus 4.4 21:59:57 10° WSW 22:04:51 55° SSE 22:07:00 31° ESE
Cosmos 2221 Rocket 3.8 22:00:38 10° NNW 22:05:02 68° W 22:07:52 22° S
MetOp-A 4.1 22:03:35 25° SSE 22:06:45 85° ENE 22:12:07 10° NNW
Tiangong 2 1.8 22:05:02 10° WNW 22:08:04 39° SSW 22:08:08 39° SSW
deb Kosmos-1763 4.1 22:06:48 10° NNW 22:10:33 68° ENE 22:11:15 53° SE
Terra 3.3 22:12:01 21° E 22:12:47 21° ENE 22:16:21 10° NNE
USA 215 3.4 22:09:49 27° ESE 22:13:36 66° NE 22:20:06 10° NW
Cosmos 1943 Rocket 2.4 22:09:49 10° SSW 22:15:23 70° WNW 22:20:57 10° NNE
Cosmos 1340 2.5 22:14:00 10° N 22:17:49 84° E 22:18:27 59° SSE
Cosmos 1674 Rocket 4.3 22:14:38 10° NNE 22:18:34 33° ENE 22:18:42 33° E
DMSP B5D2-2 4.5 22:13:51 10° NNE 22:18:45 40° E 22:19:27 38° ESE
SPOT 1/Viking Rocket 3.6 22:22:10 42° SE 22:23:45 60° ENE 22:28:53 10° N
SPOT 5 3.0 22:26:39 38° SSE 22:28:47 89° WSW 22:34:07 10° NNW
Shenzhou-11 Module 4.5 22:28:15 10° W 22:29:25 16° WSW 22:29:25 16° WSW
H-2A R/B 3.9 22:31:06 17° ENE 22:31:06 17° ENE 22:33:28 10° NNE
Cosmos 1606 3.9 22:29:12 10° NNW 22:32:43 37° W 22:33:58 28° SW
YAOGAN 11 4.1 22:31:48 52° S 22:32:55 84° WSW 22:37:28 10° NNW
Cosmos 1269 Rocket 4.1 22:28:47 10° NNW 22:34:04 73° WSW 22:35:49 42° S
Lacrosse 5 rocket 4.1 22:33:53 10° WNW 22:36:17 17° NW 22:38:44 10° N
Cosmos 2369 Rocket 4.3 22:33:13 10° WSW 22:37:54 26° WNW 22:42:38 10° N
Cosmos 1092 Rocket 4.0 22:36:34 44° SE 22:38:16 59° E 22:44:18 10° NNE
Nadezhda 4 Rocket 3.9 22:35:52 32° S 22:39:00 87° E 22:45:12 10° N
CENTAUR R/B 3.6 22:34:15 10° WSW 22:39:59 45° NW 22:46:30 10° NNE
Okean 3 4.5 22:37:12 10° NNE 22:40:23 33° ENE 22:40:23 33° ENE
IGS 5A 4.4 22:42:12 35° ENE 22:42:12 35° ENE 22:45:35 10° N
Cosmos 1833 4.2 22:40:43 10° NNW 22:46:32 83° WSW 22:47:58 53° S
Cosmos 1908 Rocket 3.9 22:52:48 52° NE 22:52:48 52° NE 22:56:31 10° NNE
Cosmos 2344 3.9 22:44:58 10° SW 22:52:35 68° NW 23:00:58 10° NNE
GPS 2-04 Rocket1 4.4 22:49:22 10° W 22:50:56 22° WSW 22:50:56 22° WSW
Cosmos 2297 Rocket 4.3 22:55:50 10° NNE 22:58:27 13° NE 23:00:02 12° ENE
H-2A ROCKET BODY 3.8 22:56:38 10° WSW 22:58:45 24° SSW 22:58:45 24° SSW
ATLAS 5 CENTAUR R/B 2.7 22:56:42 10° NW 23:02:46 61° WSW 23:04:14 49° SSW
Cosmos 1867 3.7 22:57:32 10° NNW 23:02:56 58° ENE 23:03:23 56° E
H-2A R/B 2.6 23:03:26 43° SW 23:04:44 54° W 23:09:59 10° NNW
Cosmos 494 Rocket 3.8 23:04:09 10° NNW 23:09:23 83° ENE 23:09:26 83° E
Cosmos 1656 Rocket 4.3 23:10:32 22° SW 23:13:48 50° WNW 23:19:10 10° NNE
Meteor 1-20 Rocket 4.3 23:26:09 65° ENE 23:26:09 65° ENE 23:31:25 10° NNE
CZ-4B R/B 4.2 23:21:37 10° NNE 23:25:02 40° NE 23:25:02 40° NE
Sich 1 Rocket 4.2 23:27:16 53° NW 23:27:16 53° NW 23:31:02 10° N
Cosmos 2195 Rocket 4.5 23:27:15 65° SSW 23:28:16 81° W 23:34:37 10° N
Meteor 1-25 Rocket 4.2 23:31:48 84° ENE 23:31:48 84° ENE 23:37:33 10° N
Milstar 3 3.6 23:29:52 10° WSW 23:36:55 39° SSW 23:36:55 39° SSW
Lacrosse 4 Rocket 3.6 23:35:55 10° WNW 23:38:29 19° W 23:38:29 19° W
Cosmos 1655 Rocket 3.8 23:43:07 88° SSE 23:43:12 89° E 23:49:27 10° N
Cosmos 1975 Rocket 4.1 23:39:18 10° N 23:42:22 44° N 23:42:22 44° N
ATLAS CENTAUR R/B 3.3 23:48:33 27° NNW 23:48:33 27° NNW 23:50:46 10° NNE
CZ-2C R/B 4.0 23:43:14 10° NNE 23:46:01 27° NE 23:46:01 27° NE
Cosmos 2227 Rocket 3.1 23:43:23 10° N 23:48:20 39° NE 23:48:20 39° NE
Terra 3.1 23:50:55 34° W 23:50:55 34° W 23:54:39 10° NNW
